Lander, WY

10:35 PM MDT on May 26, 2017 (GMT -0600)
Hunt

Weather History for KLND - March, 2012

Change the Weather History Date:

Saturday, March 24, 2012

  Actual Average Record
Temperature  
Mean Temperature 55 °F 38 °F  
Max Temperature 70 °F 50 °F 70 °F (2012)
Min Temperature 40 °F 26 °F -7 °F (1965)
Degree Days  
Heating Degree Days 10 27  
Month to date heating degree days 539 734  
Since 1 July heating degree days 5882 6438  
Cooling Degree Days 0 0  
Month to date cooling degree days 0 0  
Year to date cooling degree days 0 0  
Growing Degree Days 4 (Base 50)    
Moisture  
Dew Point 22 °F    
Average Humidity 33    
Maximum Humidity 54    
Minimum Humidity 11    
Precipitation  
Precipitation 0.00 in 0.04 in 0.83 in (1959)
Month to date precipitation 0.36 0.83  
Year to date precipitation 1.67 1.82  
Snow  
Snow 0.00 in 0.60 in - ()
Month to date snowfall 7.5 11.9  
Since 1 July snowfall 59.2 65.5  
Snow Depth 0.00 in    
Sea Level Pressure  
Sea Level Pressure 29.91 in    
Wind  
Wind Speed 7 mph (West)    
Max Wind Speed 15 mph    
Max Gust Speed -    
Visibility 10 miles    
Events      
T = Trace of Precipitation, MM = Missing Value Source: NWS Daily Summary

Daily Weather History Graph

Daily Weather History Graph

Search for Another Location

Airport or City:

Trip Planner

Search our weather history database for the weather conditions in past years. The results will help you decide how hot, cold, wet, or windy it might be!

Date:

Astronomy

Mar. 24, 2012 Rise Set
Actual Time 7:10 AM MDT 7:32 PM MDT
Civil Twilight 6:41 AM MDT 8:00 PM MDT
Nautical Twilight 6:08 AM MDT 8:34 PM MDT
Astronomical Twilight 5:34 AM MDT 9:08 PM MDT
Moon 7:46 AM MDT (3/24) 9:59 PM MDT (3/24)
Length of Visible Light 13h 18m
Length of Day
12h 22m
Waxing Crescent, 4% of the Moon is Illuminated
Mar 24
Waxing Crescent
Mar 30
First Quarter
Apr 6
Full
Apr 13
Last Quarter
Apr 21
New

Hourly Weather History & Observations

Time (MDT) Temp. Windchill Dew Point Humidity Pressure Visibility Wind Dir Wind Speed Gust Speed Precip Events Conditions
12:53 AM 50.0 °F - 18.0 °F 28% 29.86 in 10.0 mi ESE 5.8 mph - N/A   Clear
1:53 AM 46.0 °F 43.9 °F 19.9 °F 35% 29.86 in 10.0 mi NNW 4.6 mph - N/A   Clear
2:53 AM 46.9 °F - 19.9 °F 34% 29.88 in 10.0 mi West 8.1 mph - N/A   Clear
3:53 AM 48.9 °F - 19.9 °F 32% 29.88 in 10.0 mi WSW 10.4 mph - N/A   Clear
4:53 AM 39.9 °F 35.8 °F 21.9 °F 49% 29.93 in 10.0 mi East 5.8 mph - N/A   Clear
5:53 AM 46.0 °F - 19.9 °F 35% 29.93 in 10.0 mi Calm Calm - N/A   Clear
6:53 AM 44.1 °F 38.6 °F 21.0 °F 40% 29.99 in 10.0 mi West 10.4 mph - N/A   Clear
7:53 AM 45.0 °F 43.5 °F 21.9 °F 40% 30.01 in 10.0 mi West 3.5 mph - N/A   Clear
8:53 AM 46.0 °F 43.9 °F 25.0 °F 44% 30.00 in 10.0 mi North 4.6 mph - N/A   Clear
9:53 AM 46.0 °F 43.1 °F 30.9 °F 56% 30.02 in 10.0 mi NW 5.8 mph - N/A   Clear
10:53 AM 48.9 °F - 32.0 °F 52% 30.02 in 10.0 mi West 5.8 mph - N/A   Clear
11:53 AM 54.0 °F - 30.9 °F 41% 29.98 in 10.0 mi NNW 4.6 mph - N/A   Clear
12:53 PM 57.0 °F - 30.9 °F 37% 29.96 in 10.0 mi Calm Calm - N/A   Clear
1:53 PM 61.0 °F - 30.9 °F 32% 29.93 in 10.0 mi Variable 3.5 mph - N/A   Clear
2:53 PM 64.9 °F - 30.0 °F 27% 29.88 in 10.0 mi North 4.6 mph - N/A   Clear
3:53 PM 69.1 °F - 14.0 °F 12% 29.83 in 10.0 mi WSW 11.5 mph - N/A   Clear
4:53 PM 70.0 °F - 15.1 °F 12% 29.85 in 10.0 mi SW 9.2 mph - N/A   Clear
5:53 PM 66.9 °F - 14.0 °F 13% 29.83 in 10.0 mi WSW 11.5 mph - N/A   Clear
6:53 PM 64.9 °F - 17.1 °F 16% 29.83 in 10.0 mi NW 4.6 mph - N/A   Clear
7:53 PM 59.0 °F - 19.9 °F 22% 29.86 in 10.0 mi SW 9.2 mph - N/A   Clear
8:53 PM 54.0 °F - 21.9 °F 29% 29.89 in 10.0 mi SW 10.4 mph - N/A   Clear
9:53 PM 59.0 °F - 21.0 °F 23% 29.87 in 10.0 mi SSW 11.5 mph - N/A   Clear
10:53 PM 59.0 °F - 21.9 °F 24% 29.86 in 10.0 mi SW 15.0 mph - N/A   Clear
11:53 PM 57.9 °F - 21.9 °F 25% 29.83 in 10.0 mi Variable 6.9 mph - N/A   Clear